Probability
0 0 0 0 0 0 0 0 0 0 0 0 0 0 0 0 0 0 0 0 0 0 0 0 0 0 0 0 0 0 0 0 0 0 0 0 0 0 0 0 0 0 0 0
0 0 0 0 0 0 0 0 0 0 0 0 0 0 0 0 0 0 0 0 0 0 0 0 0 0 0 0 0 0 0 0 0 0 0 0 0 0 0 0 0 0 0 0
0 0 0 0 0 0 0 0 0 0 0 0 0 0 0 0 0 0 0 0 0 0 0 0 0 0 0 0 0 0 0 0 0 0 0 0 0 0 0 0 0 0 0 0
0 0 0 0 0 0 0 0 0 0 0 0 0 0 0 0 0 0 0 0 0 0 0 0 0 0 0 0 0 0 0 0 0 0 0 0 0 0 0 0 0 0 0 0
0 0 0 0 0 0 0 0 0 0 0 0 0 0 0 0 0 0 0 0 0 0 0 0 0 0 0 0 0 0 0 0 0 0 0 0 0 0 0 0 0 0 0 0
0 0 0 0 0 0 0 0 0 0 0 0 0 0 0 0 0 0 0 0 0 0 0 0 0 0 0 0 3 3 0 0 0 0 0 0 0 0 0 0 0 0 0 0
0 0 0 0 0 0 0 0 0 0 0 0 0 0 0 0 0 0 0 0 0 0 0 0 0 0 0 0 3 3 0 0 0 0 0 0 0 0 0 0 0 0 0 0
0 0 0 0 0 0 0 0 0 0 0 0 0 0 0 0 0 0 0 0 0 0 0 0 0 0 0 3 3 0 0 0 0 0 0 0 0 0 0 0 0 0 0 0
0 0 0 0 0 0 0 0 0 0 0 0 0 0 0 0 0 0 0 0 0 0 0 0 0 0 0 0 0 0 0 0 0 0 0 0 0 0 0 0 0 0 0 0
0 0 0 0 0 0 0 0 0 0 0 0 0 0 0 0 0 0 0 0 0 0 0 0 0 0 0 0 0 0 0 0 0 0 0 0 0 0 0 0 0 0 0 0
0 0 0 0 0 0 0 0 0 0 0 0 0 0 0 0 0 0 0 0 0 0 0 0 0 0 0 0 0 0 0 0 0 0 0 0 0 0 0 0 0 0 0 0
0 0 0 0 0 0 0 0 0 0 0 0 0 0 0 0 0 0 0 0 0 0 0 0 0 0 0 0 0 0 0 0 0 0 0 0 0 0 0 0 0 0 0 0
0 0 0 0 0 0 0 0 0 0 0 0 0 0 0 0 0 0 0 0 0 0 0 0 0 0 0 0 0 0 0 0 0 0 0 0 0 0 0 0 0 0 0 0
0 0 0 0 0 0 0 0 0 0 0 0 0 0 0 0 0 0 0 0 0 0 0 0 0 0 0 0 0 0 0 0 0 0 0 0 0 0 0 0 0 0 0 0
0 0 0 0 0 0 0 0 0 0 0 0 0 0 0 0 0 0 0 0 0 0 0 0 0 0 0 0 0 0 0 0 0 0 0 0 0 0 0 0 0 0 0 0
0 0 0 0 0 0 0 0 0 0 0 0 0 0 0 0 0 0 0 0 0 0 0 0 0 0 0 0 0 0 0 0 0 0 0 0 0 0 0 0 0 0 0 0
0 0 0 0 0 0 0 0 0 0 0 0 0 0 0 0 0 0 0 0 0 0 0 0 0 0 0 0 0 0 0 0 0 0 0 0 0 0 0 0 0 0 0 0
0 0 0 0 0 0 0 0 0 0 0 0 0 0 0 0 0 0 0 0 0 0 0 0 0 0 0 0 0 0 0 0 0 0 0 0 0 0 0 0 0 0 0 0
0 0 0 0 0 0 0 0 0 0 0 0 0 0 0 0 0 0 0 0 0 0 0 0 0 0 0 0 0 0 0 0 0 0 0 0 0 0 0 0 0 0 0 0
0 0 0 0 0 0 0 0 0 0 0 0 0 0 0 0 0 0 0 0 0 0 0 0 0 0 0 0 0 0 0 0 0 0 0 0 0 0 0 0 0 0 0 0
0 0 0 0 0 0 0 0 0 0 0 0 0 0 0 0 0 0 0 0 0 0 0 0 0 0 0 0 0 0 0 0 0 0 0 0 0 0 0 0 0 0 0 0
0 0 0 0 0 0 0 0 0 0 0 0 0 0 0 0 0 0 0 0 0 0 0 0 0 0 0 0 0 0 0 0 0 0 0 0 0 0 0 0 0 0 0 0
0 0 0 0 0 0 0 0 0 0 0 0 0 0 0 0 0 0 0 0 0 0 0 0 0 0 0 0 0 0 0 0 0 0 0 0 0 0 0 0 0 0 0 0
0 0 0 0 0 0 0 0 0 0 0 0 0 0 0 0 0 0 0 0 0 0 0 0 0 0 0 0 0 0 0 0 0 0 0 0 0 0 0 0 0 0 0 0
0 0 0 0 0 0 0 0 0 0 0 0 0 0 0 0 0 0 0 0 0 0 0 0 0 0 0 0 0 0 0 0 0 0 0 0 0 0 0 0 0 0 0 0
0 0 0 0 0 0 0 0 0 0 0 0 0 0 0 0 0 0 0 0 0 0 0 0 0 0 0 0 0 0 0 0 0 0 0 0 0 0 0 0 0 0 0 0
Height
5739 5739 5737 5736 5734 5733 5730 5728 5727 5725 5722 5720 5718 5716 5713 5709 5707 5705 5702 5700 5698 5697 5696 5694 5694 5693 5691 5690 5688 5687 5685 5684 5682 5682 5681 5682 5682 5682 5681 5682 5683 5684 5685 5686
5733 5732 5730 5728 5727 5725 5723 5721 5719 5717 5714 5712 5710 5708 5705 5702 5699 5696 5693 5691 5688 5686 5685 5683 5682 5680 5679 5677 5675 5673 5671 5669 5667 5666 5666 5666 5666 5666 5665 5666 5666 5666 5667 5668
5725 5724 5722 5721 5719 5717 5715 5713 5711 5708 5706 5703 5701 5700 5698 5694 5690 5687 5684 5681 5679 5676 5674 5672 5670 5668 5666 5664 5661 5659 5657 5655 5652 5651 5650 5649 5649 5649 5649 5648 5648 5648 5648 5649
5716 5715 5714 5712 5710 5708 5706 5704 5702 5699 5697 5694 5693 5690 5689 5686 5682 5678 5675 5672 5669 5666 5664 5661 5659 5656 5653 5650 5647 5645 5642 5640 5637 5635 5633 5632 5631 5631 5630 5629 5630 5630 5630 5630
5707 5706 5705 5703 5701 5699 5697 5695 5692 5690 5687 5685 5683 5680 5680 5676 5673 5669 5666 5662 5658 5656 5653 5650 5646 5643 5640 5636 5633 5630 5627 5624 5621 5618 5616 5615 5613 5612 5611 5610 5611 5611 5612 5612
5698 5696 5695 5694 5692 5690 5687 5685 5682 5680 5677 5676 5675 5671 5670 5667 5663 5659 5655 5651 5648 5644 5641 5638 5634 5630 5626 5622 5619 5615 5612 5609 5606 5602 5600 5597 5596 5595 5594 5593 5593 5593 5593 5594
5688 5687 5685 5684 5682 5680 5678 5675 5672 5669 5667 5666 5664 5661 5661 5657 5653 5648 5644 5640 5636 5632 5629 5626 5621 5617 5612 5608 5604 5600 5597 5594 5590 5586 5584 5581 5580 5578 5577 5577 5576 5576 5576 5577
5677 5676 5675 5673 5672 5670 5668 5666 5663 5659 5656 5653 5652 5650 5651 5647 5642 5638 5633 5629 5624 5620 5616 5613 5608 5604 5599 5594 5590 5586 5582 5579 5575 5571 5569 5567 5564 5563 5562 5561 5560 5560 5560 5561
5665 5665 5664 5663 5661 5660 5657 5655 5653 5649 5644 5642 5641 5640 5640 5637 5632 5627 5622 5617 5613 5608 5604 5600 5595 5590 5585 5580 5576 5572 5568 5564 5561 5558 5555 5553 5551 5549 5548 5547 5545 5545 5546 5547
5654 5653 5653 5651 5650 5648 5647 5644 5642 5638 5634 5630 5629 5629 5629 5625 5621 5616 5611 5606 5601 5596 5591 5587 5582 5577 5572 5567 5562 5558 5554 5551 5547 5544 5542 5539 5537 5535 5534 5533 5532 5531 5532 5533
5642 5641 5641 5640 5639 5638 5636 5634 5630 5627 5624 5620 5616 5620 5618 5614 5609 5604 5599 5593 5588 5584 5579 5574 5569 5564 5559 5554 5549 5545 5541 5537 5534 5531 5528 5526 5524 5522 5521 5520 5519 5519 5520 5521
5629 5628 5627 5628 5627 5625 5623 5622 5619 5617 5613 5609 5604 5609 5607 5603 5597 5592 5587 5581 5576 5572 5567 5562 5557 5552 5547 5542 5537 5532 5528 5524 5521 5518 5515 5513 5511 5510 5509 5508 5507 5507 5508 5510
5616 5615 5615 5614 5615 5614 5611 5610 5607 5604 5600 5597 5593 5597 5595 5591 5585 5579 5574 5569 5564 5559 5555 5549 5544 5540 5535 5530 5525 5520 5516 5512 5508 5505 5503 5501 5499 5498 5497 5496 5496 5496 5497 5499
5602 5601 5603 5604 5602 5599 5598 5598 5595 5591 5588 5585 5583 5583 5584 5578 5572 5567 5562 5557 5552 5547 5542 5537 5532 5527 5522 5517 5513 5508 5504 5499 5496 5493 5490 5488 5487 5486 5485 5485 5485 5485 5487 5488
5588 5588 5589 5590 5589 5586 5585 5585 5583 5579 5577 5573 5573 5570 5570 5565 5559 5554 5550 5545 5540 5535 5530 5524 5520 5515 5510 5505 5500 5496 5491 5487 5483 5480 5478 5476 5475 5474 5474 5474 5475 5475 5477 5479
5575 5575 5575 5575 5576 5573 5571 5573 5571 5568 5565 5561 5558 5557 5558 5551 5546 5541 5537 5532 5528 5523 5518 5512 5507 5503 5498 5493 5488 5483 5479 5474 5471 5468 5466 5464 5463 5463 5464 5464 5465 5466 5467 5469
5562 5562 5561 5561 5562 5557 5558 5564 5561 5557 5554 5550 5545 5546 5543 5538 5533 5529 5525 5520 5516 5511 5506 5501 5496 5491 5486 5481 5476 5471 5467 5462 5459 5457 5455 5453 5453 5453 5454 5455 5456 5457 5459 5461
5549 5549 5547 5546 5546 5542 5550 5551 5548 5543 5541 5538 5534 5532 5529 5524 5521 5517 5513 5508 5504 5499 5495 5490 5485 5480 5475 5470 5465 5460 5456 5452 5449 5447 5445 5444 5443 5444 5445 5446 5448 5449 5451 5453
5537 5536 5534 5533 5530 5528 5536 5537 5534 5529 5527 5527 5521 5518 5515 5511 5508 5506 5501 5496 5491 5487 5483 5478 5473 5469 5464 5459 5455 5450 5447 5443 5440 5438 5436 5435 5435 5436 5437 5439 5440 5442 5444 5446
5524 5523 5522 5519 5517 5516 5524 5523 5519 5515 5512 5514 5509 5505 5501 5498 5495 5494 5489 5484 5480 5476 5471 5467 5462 5458 5454 5449 5445 5441 5437 5434 5431 5429 5428 5427 5427 5429 5430 5432 5433 5435 5437 5439
5510 5509 5508 5507 5503 5503 5510 5508 5505 5503 5501 5498 5495 5491 5488 5485 5482 5480 5476 5472 5468 5464 5459 5455 5451 5447 5443 5439 5435 5431 5428 5425 5423 5421 5420 5420 5420 5421 5423 5424 5427 5429 5431 5434
5496 5496 5496 5495 5492 5495 5496 5494 5492 5489 5486 5483 5480 5478 5475 5472 5469 5466 5463 5459 5456 5452 5448 5443 5439 5436 5432 5428 5425 5422 5419 5416 5414 5413 5412 5412 5413 5414 5416 5418 5420 5423 5425 5428
5483 5484 5483 5482 5483 5483 5480 5479 5477 5475 5472 5470 5467 5465 5462 5459 5457 5454 5451 5447 5443 5440 5436 5432 5428 5425 5422 5418 5415 5412 5410 5407 5406 5405 5405 5406 5406 5408 5409 5411 5414 5416 5419 5423
5470 5471 5469 5469 5470 5470 5467 5465 5463 5461 5458 5456 5454 5452 5449 5446 5444 5441 5438 5435 5431 5428 5424 5420 5417 5414 5412 5408 5405 5402 5400 5399 5398 5398 5398 5399 5400 5401 5403 5405 5408 5410 5413 5417
5457 5457 5455 5455 5457 5455 5454 5452 5450 5448 5446 5443 5441 5439 5436 5433 5431 5428 5425 5422 5419 5416 5413 5409 5406 5403 5401 5398 5396 5393 5391 5390 5390 5390 5390 5391 5392 5394 5396 5399 5401 5404 5407 5411
5446 5444 5443 5443 5444 5441 5441 5440 5437 5435 5433 5431 5429 5427 5424 5421 5418 5415 5413 5410 5407 5404 5401 5398 5395 5393 5391 5388 5386 5384 5383 5382 5382 5383 5383 5385 5386 5388 5390 5392 5395 5398 5402 5406
Wind_Speed
23 24 24 25 25 26 26 27 27 28 29 29 29 29 31 33 34 34 36 37 39 40 41 42 43 44 45 45 47 48 49 51 52 53 54 54 55 56 57 58 59 61 63 63
25 26 26 27 27 28 28 29 29 30 30 31 30 30 31 32 34 34 35 37 39 40 41 42 43 45 46 46 48 49 50 51 52 53 54 55 56 57 58 59 60 61 63 64
28 28 29 29 30 31 31 32 32 33 33 33 33 31 31 32 33 33 34 37 39 40 41 43 44 46 47 48 49 50 50 51 53 55 55 56 58 58 59 60 60 61 62 64
30 30 31 32 33 33 33 34 35 35 35 35 35 35 33 33 33 35 36 37 38 39 41 43 45 46 47 48 50 51 51 52 54 55 56 56 57 58 59 59 59 61 61 63
32 32 33 34 34 35 35 36 37 37 37 37 36 37 35 35 35 36 38 39 40 41 42 44 45 46 48 49 50 51 52 53 55 55 56 56 56 58 58 58 57 59 59 61
34 35 35 35 36 36 37 37 38 39 39 39 38 38 37 36 37 37 39 40 41 42 43 45 46 47 48 50 50 51 53 54 54 55 55 55 55 56 57 57 56 56 57 58
36 36 37 37 37 38 38 38 40 41 41 41 40 40 39 39 39 39 41 43 44 45 46 46 47 48 49 50 51 51 52 53 54 54 53 53 53 53 54 54 53 53 53 54
38 38 38 38 38 39 39 39 40 42 43 44 42 42 40 40 40 41 43 45 46 46 47 48 50 50 50 51 51 52 51 52 52 52 51 50 51 50 51 52 52 51 50 50
40 41 40 40 40 40 40 40 40 42 44 45 44 44 41 41 42 42 43 45 47 49 49 50 51 51 51 51 51 51 51 50 49 49 49 48 48 47 48 49 48 48 47 47
42 43 42 42 42 42 42 41 41 42 44 46 46 45 43 42 42 44 45 47 49 50 51 51 51 51 51 51 50 50 50 48 47 46 47 47 46 45 46 45 45 45 44 45
43 44 44 43 43 42 42 42 42 43 44 46 48 47 45 44 45 46 47 49 50 50 51 51 51 51 50 49 48 48 47 47 46 46 45 45 44 45 44 43 43 43 43 44
44 45 45 44 44 44 43 42 42 43 45 47 49 49 46 45 46 47 48 49 51 51 52 52 51 50 49 48 47 46 46 46 45 45 44 43 43 42 42 42 42 42 41 41
44 45 46 46 46 44 43 43 43 45 47 48 49 49 47 47 47 48 50 51 51 52 51 51 51 50 48 47 46 45 45 44 44 44 43 42 42 41 41 41 40 40 39 40
46 47 47 46 45 45 45 44 44 46 48 49 50 49 47 47 49 49 50 51 51 51 51 50 50 48 47 47 45 45 44 43 43 43 42 42 41 40 40 38 38 37 37 39
47 48 48 47 45 46 46 46 46 47 48 50 49 50 48 47 49 50 51 51 50 50 50 50 49 47 46 46 46 45 44 43 43 42 41 40 39 39 38 37 37 36 37 37
47 49 48 49 47 47 48 47 48 48 49 50 51 51 47 49 50 51 51 50 49 49 49 48 48 47 45 45 44 44 44 42 41 40 39 38 37 36 36 35 35 34 34 35
47 47 48 50 49 50 51 48 48 48 48 49 51 50 48 49 50 49 50 49 48 47 47 47 46 46 44 43 43 42 41 39 38 37 37 36 35 35 34 34 33 32 32 32
47 48 48 49 50 53 51 48 48 49 49 49 50 49 49 49 49 49 48 48 47 46 46 46 45 44 42 41 40 38 37 36 35 35 35 33 32 33 32 31 31 30 31 31
47 47 48 49 51 53 50 48 47 48 49 47 48 48 49 49 49 47 47 47 46 46 46 45 44 43 41 39 38 37 36 34 34 33 33 31 30 30 30 30 29 28 29 30
46 46 47 48 50 52 49 47 47 48 50 47 47 48 48 48 47 46 46 46 46 45 45 45 44 41 39 38 37 36 34 33 32 32 31 30 29 28 28 27 27 26 26 27
46 46 47 48 49 50 47 46 46 47 48 48 48 48 48 47 47 46 45 45 45 45 44 44 42 40 38 38 37 36 34 32 30 30 29 28 26 25 26 26 26 25 25 25
46 46 47 48 48 47 45 45 45 46 47 48 48 48 47 47 46 46 46 46 45 45 44 42 41 40 39 38 37 35 33 31 29 28 27 26 25 25 26 26 25 25 25 25
46 46 46 47 47 46 45 45 46 46 47 47 48 48 47 47 46 46 46 45 45 44 43 42 41 40 38 37 36 34 32 30 28 26 25 24 24 25 25 26 26 26 26 26
47 46 47 47 46 45 45 46 47 47 47 47 48 47 47 47 46 45 44 44 43 42 41 41 40 38 37 36 35 33 31 29 27 25 25 24 23 24 25 25 25 26 25 25
45 46 47 47 46 47 46 47 47 48 47 47 46 46 46 45 44 43 43 43 42 41 40 39 38 37 35 34 33 31 30 28 26 25 24 23 22 22 23 24 24 25 25 25
41 42 44 44 44 46 45 45 45 45 45 44 43 43 43 43 43 43 42 42 41 39 38 37 36 35 34 33 32 30 28 26 25 25 24 23 22 22 23 24 24 26 26 25
Wind_Direction
284 285 287 288 288 289 290 289 288 288 288 288 288 287 286 286 286 285 283 281 280 279 277 276 277 277 278 278 277 278 277 275 272 270 268 266 265 266 266 265 264 263 262 260
282 283 285 287 288 289 290 290 289 289 290 290 290 289 288 288 288 286 285 283 282 281 279 279 279 279 280 280 280 279 279 277 274 272 271 269 267 267 267 266 265 265 263 261
282 284 285 286 288 289 290 290 290 290 291 291 292 290 290 289 288 288 287 286 285 283 283 282 281 281 282 282 281 280 280 278 277 275 273 272 271 269 269 267 266 265 264 263
282 284 285 286 287 288 289 289 290 291 291 293 293 292 292 292 290 291 290 289 288 286 286 285 285 285 285 284 283 282 281 280 280 278 275 274 273 270 270 268 267 266 265 263
281 284 285 286 287 288 289 289 289 290 291 292 293 294 294 295 293 292 292 291 291 288 288 289 289 289 288 287 285 284 283 283 282 280 277 275 275 272 270 269 268 266 265 263
281 283 284 286 286 288 289 289 289 289 291 291 293 294 295 296 295 294 293 293 292 291 291 292 293 293 292 290 288 286 285 285 284 281 278 276 276 274 271 269 268 267 265 263
280 282 283 285 286 287 288 289 290 290 291 292 293 293 295 296 297 296 295 294 295 294 294 294 296 296 295 293 291 289 288 287 284 281 278 277 276 274 272 269 268 266 265 263
280 281 282 283 285 286 287 287 289 290 292 293 293 294 296 297 297 297 296 296 297 296 296 296 297 297 296 295 293 291 290 288 285 282 278 276 276 275 272 270 269 266 265 262
279 280 281 282 283 285 286 286 287 288 289 291 292 294 295 296 297 297 297 297 298 298 298 299 300 300 298 297 294 292 290 288 285 282 277 276 275 274 272 271 269 266 264 261
277 278 279 281 282 283 284 286 286 287 289 291 292 294 297 298 298 298 298 298 299 299 300 300 301 301 299 298 296 294 291 288 285 282 278 275 274 274 273 270 269 266 263 259
275 277 278 279 281 282 283 284 284 285 287 289 291 294 297 299 299 299 299 299 299 300 301 301 300 300 300 298 296 294 292 289 286 283 280 277 276 275 272 270 268 266 262 258
274 275 276 278 279 280 281 282 283 284 286 287 289 293 297 298 298 297 297 298 299 300 300 300 299 300 299 297 295 293 292 290 287 284 281 277 276 273 271 270 267 265 261 257
272 273 275 276 278 279 280 281 282 283 283 286 289 293 296 296 296 296 297 298 299 300 300 300 299 299 298 297 295 293 292 290 287 285 282 277 275 273 270 268 265 263 260 255
269 271 273 275 278 279 280 281 282 282 284 286 289 293 294 296 296 295 296 297 298 299 300 300 300 299 297 295 295 293 293 291 288 284 282 278 275 272 268 265 264 262 258 254
268 270 272 274 274 276 278 280 281 282 284 286 290 291 295 295 294 295 296 297 298 299 300 300 299 299 297 295 294 292 292 290 287 283 281 278 274 270 266 263 263 260 257 252
269 270 272 272 273 274 275 278 280 282 285 287 289 291 295 293 293 294 296 296 297 298 299 299 299 299 298 297 294 293 292 290 286 282 280 277 272 268 264 262 260 258 253 249
268 269 269 271 272 273 274 279 281 282 284 286 288 292 292 292 293 294 295 296 296 298 299 299 299 299 300 298 295 294 293 290 286 282 279 275 270 266 263 259 256 254 251 248
266 267 268 270 271 271 277 279 280 282 284 286 288 289 290 291 292 293 295 296 296 296 297 299 300 299 299 298 295 294 293 290 286 282 278 273 269 265 260 255 251 250 247 243
265 266 267 269 271 274 276 280 282 283 283 286 288 289 290 290 291 292 294 295 295 295 297 299 299 299 299 298 296 294 293 289 286 281 275 270 266 261 256 251 249 249 245 239
264 265 267 269 272 274 278 281 282 282 283 286 288 289 289 290 291 292 292 293 294 295 296 298 298 298 298 296 296 295 293 289 284 279 273 268 265 260 255 250 247 245 242 236
262 263 266 268 272 275 278 280 282 283 286 287 287 288 289 290 291 291 291 292 293 295 296 297 297 296 296 295 295 295 294 289 283 277 271 265 261 257 251 246 242 241 239 235
263 264 266 268 270 274 278 279 280 282 284 286 287 288 288 289 289 290 291 292 293 294 295 295 294 294 294 295 294 293 292 288 282 274 267 261 257 254 248 243 240 237 236 234
262 265 267 269 271 274 276 278 279 281 283 285 286 287 287 288 288 289 290 291 292 293 293 292 292 293 293 293 293 293 290 285 278 272 264 258 255 251 246 241 240 236 233 231
264 265 268 270 272 274 276 278 280 282 283 285 286 287 288 288 289 289 290 290 292 292 292 291 291 291 292 291 291 291 289 283 276 269 263 258 254 249 244 239 236 231 227 224
265 266 269 271 273 274 276 279 281 282 283 284 286 287 288 289 289 290 290 291 291 291 291 290 290 290 290 290 290 289 286 280 272 264 259 256 253 248 242 237 234 229 225 222
267 269 270 272 273 274 276 277 278 280 282 284 285 287 288 289 290 290 290 291 290 290 289 289 289 288 289 288 287 285 282 277 270 263 258 254 251 246 241 235 231 227 224 221